TimeEDT,TemperatureF,Dew PointF,Humidity,Sea Level PressureIn,VisibilityMPH,Wind Direction,Wind SpeedMPH,Gust SpeedMPH,PrecipitationIn,Events,Conditions,WindDirDegrees,DateUTC
12:16 AM,53.6,50.0,88,30.08,10.0,Calm,Calm,-,N/A,,Clear,0,2013-06-04 04:16:00
12:31 AM,53.6,50.0,88,30.08,10.0,Calm,Calm,-,N/A,,Clear,0,2013-06-04 04:31:00
12:52 AM,53.6,50.0,88,30.09,10.0,Calm,Calm,-,N/A,,Clear,0,2013-06-04 04:52:00
1:12 AM,51.8,48.2,88,30.09,10.0,Calm,Calm,-,N/A,,Clear,0,2013-06-04 05:12:00
1:32 AM,51.8,48.2,88,30.09,10.0,Calm,Calm,-,N/A,,Clear,0,2013-06-04 05:32:00
1:52 AM,51.8,48.2,88,30.09,10.0,Calm,Calm,-,N/A,,Clear,0,2013-06-04 05:52:00
2:12 AM,51.8,46.4,82,30.09,10.0,NNW,3.5,-,N/A,,Clear,330,2013-06-04 06:12:00
2:32 AM,51.8,46.4,82,30.09,10.0,Calm,Calm,-,N/A,,Clear,0,2013-06-04 06:32:00
2:52 AM,53.6,46.4,77,30.10,10.0,NW,3.5,-,N/A,,Clear,320,2013-06-04 06:52:00
3:12 AM,51.8,46.4,82,30.10,10.0,Calm,Calm,-,N/A,,Clear,0,2013-06-04 07:12:00
3:32 AM,51.8,46.4,82,30.10,10.0,WNW,3.5,-,N/A,,Clear,300,2013-06-04 07:32:00
3:52 AM,51.8,46.4,82,30.10,10.0,Calm,Calm,-,N/A,,Clear,0,2013-06-04 07:52:00
4:12 AM,51.8,46.4,82,30.10,10.0,Calm,Calm,-,N/A,,Clear,0,2013-06-04 08:12:00
4:33 AM,51.8,46.4,82,30.10,10.0,Calm,Calm,-,N/A,,Clear,0,2013-06-04 08:33:00
4:53 AM,51.8,46.4,82,30.10,10.0,Calm,Calm,-,N/A,,Clear,0,2013-06-04 08:53:00
5:13 AM,51.8,46.4,82,30.11,10.0,NNW,4.6,-,N/A,,Clear,340,2013-06-04 09:13:00
5:33 AM,51.8,46.4,82,30.11,10.0,North,4.6,-,N/A,,Clear,360,2013-06-04 09:33:00
5:53 AM,48.2,46.4,93,30.12,10.0,Calm,Calm,-,N/A,,Clear,0,2013-06-04 09:53:00
6:13 AM,48.2,46.4,93,30.13,10.0,Calm,Calm,-,N/A,,Clear,0,2013-06-04 10:13:00
6:33 AM,48.2,46.4,93,30.13,10.0,Calm,Calm,-,N/A,,Clear,0,2013-06-04 10:33:00
6:53 AM,51.8,46.4,82,30.15,10.0,North,5.8,-,N/A,,Clear,10,2013-06-04 10:53:00
7:13 AM,53.6,46.4,77,30.15,10.0,NNE,4.6,-,N/A,,Clear,20,2013-06-04 11:13:00
7:34 AM,53.6,48.2,82,30.16,10.0,NNE,4.6,-,N/A,,Clear,30,2013-06-04 11:34:00
7:54 AM,55.4,48.2,77,30.16,10.0,NE,4.6,-,N/A,,Clear,50,2013-06-04 11:54:00
8:14 AM,57.2,48.2,72,30.18,10.0,ENE,5.8,-,N/A,,Clear,70,2013-06-04 12:14:00
8:34 AM,57.2,48.2,72,30.18,10.0,ENE,6.9,-,N/A,,Clear,60,2013-06-04 12:34:00
8:54 AM,59.0,48.2,67,30.18,10.0,NE,6.9,-,N/A,,Clear,50,2013-06-04 12:54:00
9:14 AM,60.8,48.2,63,30.18,10.0,East,5.8,-,N/A,,Clear,80,2013-06-04 13:14:00
9:34 AM,60.8,46.4,59,30.19,10.0,ENE,3.5,-,N/A,,Clear,70,2013-06-04 13:34:00
9:54 AM,62.6,46.4,55,30.18,10.0,NE,5.8,-,N/A,,Clear,40,2013-06-04 13:54:00
10:14 AM,62.6,48.2,59,30.18,10.0,East,4.6,-,N/A,,Clear,80,2013-06-04 14:14:00
10:34 AM,64.4,44.6,49,30.18,10.0,NNE,3.5,-,N/A,,Clear,20,2013-06-04 14:34:00
10:55 AM,64.4,46.4,52,30.18,10.0,SE,3.5,-,N/A,,Clear,140,2013-06-04 14:55:00
11:15 AM,66.2,46.4,49,30.18,10.0,Calm,Calm,-,N/A,,Clear,0,2013-06-04 15:15:00
11:35 AM,66.2,46.4,49,30.19,10.0,ESE,4.6,-,N/A,,Clear,120,2013-06-04 15:35:00
11:55 AM,66.2,48.2,52,30.19,10.0,East,4.6,-,N/A,,Clear,90,2013-06-04 15:55:00
12:15 PM,64.4,48.2,56,30.18,10.0,SSE,8.1,-,N/A,,Clear,160,2013-06-04 16:15:00
12:35 PM,66.2,48.2,52,30.18,10.0,ESE,10.4,-,N/A,,Clear,120,2013-06-04 16:35:00
12:55 PM,66.2,48.2,52,30.17,10.0,SE,10.4,-,N/A,,Clear,140,2013-06-04 16:55:00
1:15 PM,66.2,48.2,52,30.17,10.0,ESE,9.2,-,N/A,,Clear,120,2013-06-04 17:15:00
1:35 PM,66.2,46.4,49,30.17,10.0,East,6.9,-,N/A,,Clear,100,2013-06-04 17:35:00
1:56 PM,66.2,48.2,52,30.18,10.0,SSE,8.1,-,N/A,,Clear,150,2013-06-04 17:56:00
2:16 PM,66.2,48.2,52,30.17,10.0,SE,6.9,-,N/A,,Clear,140,2013-06-04 18:16:00
2:36 PM,66.2,50.0,56,30.17,10.0,ESE,6.9,-,N/A,,Clear,120,2013-06-04 18:36:00
2:56 PM,66.2,48.2,52,30.17,10.0,East,4.6,-,N/A,,Clear,90,2013-06-04 18:56:00
3:16 PM,68.0,48.2,49,30.17,10.0,East,3.5,-,N/A,,Clear,90,2013-06-04 19:16:00
3:36 PM,66.2,48.2,52,30.16,10.0,East,6.9,-,N/A,,Clear,90,2013-06-04 19:36:00
3:56 PM,66.2,48.2,52,30.16,10.0,East,5.8,-,N/A,,Clear,80,2013-06-04 19:56:00
4:16 PM,68.0,50.0,52,30.15,10.0,ESE,6.9,-,N/A,,Clear,110,2013-06-04 20:16:00
4:31 PM,68.0,48.2,49,30.15,10.0,SSE,5.8,9.2,N/A,,Clear,160,2013-06-04 20:31:00
4:51 PM,68.0,48.2,49,30.15,10.0,ESE,8.1,-,N/A,,Clear,110,2013-06-04 20:51:00
5:11 PM,68.0,48.2,49,30.15,10.0,East,5.8,-,N/A,,Clear,90,2013-06-04 21:11:00
5:32 PM,68.0,48.2,49,30.15,10.0,SSE,5.8,-,N/A,,Clear,150,2013-06-04 21:32:00
5:52 PM,68.0,48.2,49,30.16,10.0,East,5.8,-,N/A,,Clear,100,2013-06-04 21:52:00
6:12 PM,68.0,48.2,49,30.15,10.0,ESE,6.9,-,N/A,,Clear,120,2013-06-04 22:12:00
6:32 PM,68.0,48.2,49,30.15,10.0,East,8.1,-,N/A,,Clear,90,2013-06-04 22:32:00
6:52 PM,66.2,48.2,52,30.14,10.0,ESE,4.6,-,N/A,,Clear,110,2013-06-04 22:52:00
7:12 PM,64.4,50.0,59,30.14,10.0,SE,5.8,-,N/A,,Clear,130,2013-06-04 23:12:00
7:32 PM,64.4,50.0,59,30.14,10.0,SE,5.8,-,N/A,,Clear,130,2013-06-04 23:32:00
7:52 PM,64.4,48.2,56,30.14,10.0,SE,6.9,-,N/A,,Clear,130,2013-06-04 23:52:00
8:12 PM,64.4,50.0,59,30.15,10.0,SE,5.8,-,N/A,,Clear,130,2013-06-05 00:12:00
8:33 PM,62.6,50.0,63,30.15,10.0,East,4.6,-,N/A,,Clear,100,2013-06-05 00:33:00
8:53 PM,62.6,50.0,63,30.15,10.0,East,4.6,-,N/A,,Clear,100,2013-06-05 00:53:00
9:13 PM,60.8,50.0,68,30.15,10.0,Calm,Calm,-,N/A,,Clear,0,2013-06-05 01:13:00
9:33 PM,60.8,51.8,72,30.16,10.0,Calm,Calm,-,N/A,,Clear,0,2013-06-05 01:33:00
9:53 PM,60.8,50.0,68,30.16,10.0,Calm,Calm,-,N/A,,Clear,0,2013-06-05 01:53:00
10:13 PM,60.8,51.8,72,30.17,10.0,East,3.5,-,N/A,,Clear,80,2013-06-05 02:13:00
10:33 PM,60.8,51.8,72,30.17,10.0,ENE,4.6,-,N/A,,Clear,70,2013-06-05 02:33:00
10:53 PM,60.8,48.2,63,30.17,10.0,ENE,8.1,-,N/A,,Clear,70,2013-06-05 02:53:00
11:13 PM,60.8,42.8,52,30.17,10.0,ENE,6.9,-,N/A,,Clear,70,2013-06-05 03:13:00
11:33 PM,59.0,39.2,48,30.17,10.0,ENE,5.8,-,N/A,,Clear,70,2013-06-05 03:33:00
11:54 PM,59.0,37.4,45,30.17,10.0,ENE,4.6,-,N/A,,Clear,60,2013-06-05 03:54:00